Вернуться в каталог

MMS 2

АктивенНаукаHEO
NORAD 40483·PAYLOAD·🇺🇸 United States

Запущен Mar 13, 2015 с Cape Canaveral Space Force Station

Loading…

Ближайшие Пролёты (ближайшие 24 часа)

TLE

СвежийSource: Space-Track

Эпоха: Sep 14, 2026, 16:00 UTC

1 40483U 15011B   26257.66671296 -.00001854  00000-0  00000-0 0  9991
2 40483  72.9574 347.7727 8259704 169.3948  66.2148  0.28336106  1419

Отслеживайте MMS 2 в реальном времени с AllMySat

Download on the App Store